Weather in Novosimbirka

Russia / Orenburg Oblast     51°46′20″N   57°52′21″E
temp.,
°C
wind,
m/s
gust,
m/s
humid.,
%
clouds,
%
prec.,
mm/h
press.,
hPa
HPBL,
m
7 march, sun
sun723:00−7sse2287100 0.0 101325
02:00−7ene3596100 1.0 1010191
05:00−8ene61095100 3.2 1007322
08:00−8ne5895100 3.3 1004239
11:00−7nne6995100 5.8 1004346
14:00−6nnw4793100 2.0 1005617
17:00−7nw71085100 2.9 1008753
20:00−14nw5119067 0.0 1012195
8 march, mon
mon823:00−17wnw349533 0.0 101548
02:00−18wsw34993 0.0 101645
05:00−19sw4710037 0.0 101695
08:00−17sw51199100 0.1 1015255
11:00−11sw101793100 0.1 1014632
14:00−7sw121992100 0.5 10131112
17:00−6sw121994100 1.6 10121122
20:00−6sw111794100 1.3 1012989
9 march, tue
tue923:00−6sw101794100 2.5 1013816
02:00−7sw91794100 1.1 1013632
05:00−8sw91894100 1.9 1012556
08:00−8sw81694100 0.5 1012502
11:00−6sw81595100 1.6 1011564
14:00−4sw81395100 1.2 1011682
17:00−3sw71196100 2.8 1010809
20:00−4ssw51096100 1.0 1008518
10 march, wed
wed1023:00−4ssw61296100 1.8 1007566
02:00−5ssw61395100 0.8 1004510
05:00−4sw81295100 2.0 1004736
08:00−13w71396100 0.2 1005421
11:00−11w81393100 0.3 1008590
14:00−10w81192100 0.1 1010742
17:00−12w71192100 0.1 1011687
20:00−15w51196100 0.1 1013396
11 march, thu
thu1123:00−18w4999100 0.2 1015208
02:00−21w46100100 0.0 1015104
05:00−22w34100100 0.1 101754
08:00−24w3410098 0.0 101948
11:00−20wnw479593 0.1 1020315
14:00−17w688983 0.0 1021594
17:00−18wnw699070 0.0 1022516
20:00−25w479838 0.0 1025111